Time,TemperatureF,DewpointF,PressureIn,WindDirection,WindDirectionDegrees,WindSpeedMPH,WindSpeedGustMPH,Humidity,HourlyPrecipIn,Conditions,Clouds,dailyrainin,SolarRadiationWatts/m^2,SoftwareType,DateUTC
2013-01-19 00:04:00,24.0,22.0,29.83,South,170,0.0,0.0,92,0.00,,---,0.00,0.00,VWS V14.00,2013-01-19 06:04:00,
2013-01-19 00:09:00,24.9,23.4,29.82,South,170,0.0,1.0,94,0.00,,---,0.00,0.00,VWS V14.00,2013-01-19 06:09:00,
2013-01-19 00:14:00,25.5,24.3,29.83,South,170,0.0,1.0,95,0.00,,---,0.00,0.00,VWS V14.00,2013-01-19 06:14:00,
2013-01-19 00:19:00,25.5,24.0,29.82,South,170,0.0,1.0,94,0.00,,---,0.00,0.00,VWS V14.00,2013-01-19 06:19:00,
2013-01-19 00:24:00,25.3,23.8,29.82,South,170,0.0,1.0,94,0.00,,---,0.00,0.00,VWS V14.00,2013-01-19 06:24:00,
2013-01-19 00:29:00,25.1,23.4,29.82,South,170,0.0,0.0,93,0.00,,---,0.00,0.00,VWS V14.00,2013-01-19 06:29:00,
2013-01-19 00:35:00,25.1,23.6,29.81,South,170,0.0,0.0,94,0.00,,---,0.00,0.00,VWS V14.00,2013-01-19 06:35:00,
2013-01-19 00:40:00,25.0,23.5,29.81,South,170,0.0,0.0,94,0.00,,---,0.00,0.00,VWS V14.00,2013-01-19 06:40:00,
2013-01-19 00:45:00,24.9,23.4,29.82,South,170,0.0,0.0,94,0.00,,---,0.00,0.00,VWS V14.00,2013-01-19 06:45:00,
2013-01-19 00:50:00,24.9,23.4,29.82,South,170,0.0,0.0,94,0.00,,---,0.00,0.00,VWS V14.00,2013-01-19 06:50:00,
2013-01-19 00:55:00,24.8,23.3,29.81,South,170,0.0,0.0,94,0.00,,---,0.00,0.00,VWS V14.00,2013-01-19 06:55:00,
2013-01-19 01:00:00,24.8,23.3,29.81,South,170,0.0,0.0,94,0.00,,---,0.00,0.00,VWS V14.00,2013-01-19 07:00:00,
2013-01-19 01:05:00,24.7,23.2,29.80,South,170,0.0,0.0,94,0.00,,---,0.00,0.00,VWS V14.00,2013-01-19 07:05:00,
2013-01-19 01:10:00,24.6,23.1,29.80,South,170,0.0,0.0,94,0.00,,---,0.00,0.00,VWS V14.00,2013-01-19 07:10:00,
2013-01-19 01:15:00,24.5,23.0,29.80,South,170,0.0,0.0,94,0.00,,---,0.00,0.00,VWS V14.00,2013-01-19 07:15:00,
2013-01-19 01:20:00,24.5,23.0,29.80,South,170,0.0,0.0,94,0.00,,---,0.00,0.00,VWS V14.00,2013-01-19 07:20:00,
2013-01-19 01:25:00,24.7,23.2,29.80,South,170,0.0,0.0,94,0.00,,---,0.00,0.00,VWS V14.00,2013-01-19 07:25:00,
2013-01-19 01:31:00,24.7,23.2,29.79,South,170,0.0,0.0,94,0.00,,---,0.00,0.00,VWS V14.00,2013-01-19 07:31:00,
2013-01-19 01:36:00,24.6,23.1,29.79,South,170,0.0,0.0,94,0.00,,---,0.00,0.00,VWS V14.00,2013-01-19 07:36:00,
2013-01-19 01:41:00,24.5,23.0,29.79,South,170,0.0,0.0,94,0.00,,---,0.00,0.00,VWS V14.00,2013-01-19 07:41:00,
2013-01-19 01:46:00,24.4,22.9,29.79,South,170,0.0,0.0,94,0.00,,---,0.00,0.00,VWS V14.00,2013-01-19 07:46:00,
2013-01-19 01:51:00,24.2,22.5,29.79,South,170,0.0,0.0,93,0.00,,---,0.00,0.00,VWS V14.00,2013-01-19 07:51:00,
2013-01-19 01:56:00,24.1,22.6,29.79,South,170,0.0,0.0,94,0.00,,---,0.00,0.00,VWS V14.00,2013-01-19 07:56:00,
2013-01-19 02:01:00,23.9,22.4,29.79,South,170,0.0,0.0,94,0.00,,---,0.00,0.00,VWS V14.00,2013-01-19 08:01:00,
2013-01-19 02:06:00,23.9,22.4,29.79,South,170,0.0,0.0,94,0.00,,---,0.00,0.00,VWS V14.00,2013-01-19 08:06:00,
2013-01-19 02:11:00,23.9,22.4,29.79,South,170,0.0,0.0,94,0.00,,---,0.00,0.00,VWS V14.00,2013-01-19 08:11:00,
2013-01-19 02:16:00,23.8,22.3,29.79,South,170,0.0,0.0,94,0.00,,---,0.00,0.00,VWS V14.00,2013-01-19 08:16:00,
2013-01-19 02:21:00,23.8,22.3,29.79,South,170,0.0,0.0,94,0.00,,---,0.00,0.00,VWS V14.00,2013-01-19 08:21:00,
2013-01-19 02:27:00,24.0,22.5,29.79,South,170,0.0,0.0,94,0.00,,---,0.00,0.00,VWS V14.00,2013-01-19 08:27:00,
2013-01-19 02:32:00,23.9,22.4,29.79,South,170,0.0,0.0,94,0.00,,---,0.00,0.00,VWS V14.00,2013-01-19 08:32:00,
2013-01-19 02:37:00,23.9,22.4,29.79,South,170,0.0,0.0,94,0.00,,---,0.00,0.00,VWS V14.00,2013-01-19 08:37:00,
2013-01-19 02:42:00,23.9,22.4,29.79,SSE,163,0.0,0.0,94,0.00,,---,0.00,0.00,VWS V14.00,2013-01-19 08:42:00,
2013-01-19 02:47:00,23.9,22.4,29.79,SSE,163,0.0,0.0,94,0.00,,---,0.00,0.00,VWS V14.00,2013-01-19 08:47:00,
2013-01-19 02:52:00,23.9,22.4,29.79,SSE,163,0.0,0.0,94,0.00,,---,0.00,0.00,VWS V14.00,2013-01-19 08:52:00,
2013-01-19 02:57:00,23.9,22.4,29.79,SSE,163,0.0,0.0,94,0.00,,---,0.00,0.00,VWS V14.00,2013-01-19 08:57:00,
2013-01-19 03:02:00,23.9,22.7,29.79,SSE,163,0.0,0.0,95,0.00,,---,0.00,0.00,VWS V14.00,2013-01-19 09:02:00,
2013-01-19 03:07:00,24.3,23.1,29.78,SSE,163,0.0,0.0,95,0.00,,---,0.00,0.00,VWS V14.00,2013-01-19 09:07:00,
2013-01-19 03:12:00,24.8,23.8,29.78,SSE,163,0.0,0.0,96,0.00,,---,0.00,0.00,VWS V14.00,2013-01-19 09:12:00,
2013-01-19 03:17:00,24.8,23.8,29.77,SSE,163,0.0,0.0,96,0.00,,---,0.00,0.00,VWS V14.00,2013-01-19 09:17:00,
2013-01-19 03:22:00,24.7,23.5,29.77,SSE,163,0.0,0.0,95,0.00,,---,0.00,0.00,VWS V14.00,2013-01-19 09:22:00,
2013-01-19 03:27:00,24.5,23.3,29.76,SSE,163,0.0,0.0,95,0.00,,---,0.00,0.00,VWS V14.00,2013-01-19 09:27:00,
2013-01-19 03:32:00,24.4,23.2,29.76,SSE,163,0.0,0.0,95,0.00,,---,0.00,0.00,VWS V14.00,2013-01-19 09:32:00,
2013-01-19 03:37:00,24.3,22.8,29.76,SSE,163,0.0,0.0,94,0.00,,---,0.00,0.00,VWS V14.00,2013-01-19 09:37:00,
2013-01-19 03:42:00,24.5,23.3,29.75,SSE,163,0.0,0.0,95,0.00,,---,0.00,0.00,VWS V14.00,2013-01-19 09:42:00,
2013-01-19 03:48:00,24.8,23.6,29.75,SSE,163,0.0,0.0,95,0.00,,---,0.00,0.00,VWS V14.00,2013-01-19 09:48:00,
2013-01-19 03:52:00,24.9,23.7,29.75,SSE,163,0.0,0.0,95,0.00,,---,0.00,0.00,VWS V14.00,2013-01-19 09:52:00,
2013-01-19 03:58:00,24.6,23.4,29.76,SSE,163,0.0,0.0,95,0.00,,---,0.00,0.00,VWS V14.00,2013-01-19 09:58:00,
2013-01-19 04:03:00,24.4,23.2,29.76,SSE,163,0.0,0.0,95,0.00,,---,0.00,0.00,VWS V14.00,2013-01-19 10:03:00,
2013-01-19 04:08:00,24.3,23.1,29.76,SSE,163,0.0,0.0,95,0.00,,---,0.00,0.00,VWS V14.00,2013-01-19 10:08:00,
2013-01-19 04:13:00,24.7,23.5,29.75,SSE,163,0.0,0.0,95,0.00,,---,0.00,0.00,VWS V14.00,2013-01-19 10:13:00,
2013-01-19 04:18:00,25.0,24.0,29.75,SSE,163,0.0,0.0,96,0.00,,---,0.00,0.00,VWS V14.00,2013-01-19 10:18:00,
2013-01-19 04:23:00,25.1,24.1,29.75,SSE,163,0.0,0.0,96,0.00,,---,0.00,0.00,VWS V14.00,2013-01-19 10:23:00,
2013-01-19 04:28:00,25.1,23.9,29.75,SSE,163,0.0,0.0,95,0.00,,---,0.00,0.00,VWS V14.00,2013-01-19 10:28:00,
2013-01-19 04:33:00,25.2,24.2,29.74,SSE,163,0.0,0.0,96,0.00,,---,0.00,0.00,VWS V14.00,2013-01-19 10:33:00,
2013-01-19 04:38:00,25.5,24.5,29.74,SSE,163,0.0,0.0,96,0.00,,---,0.00,0.00,VWS V14.00,2013-01-19 10:38:00,
2013-01-19 04:43:00,26.1,25.1,29.73,SSE,163,0.0,0.0,96,0.00,,---,0.00,0.00,VWS V14.00,2013-01-19 10:43:00,
2013-01-19 04:48:00,26.6,25.6,29.73,SSE,163,0.0,2.0,96,0.00,,---,0.00,0.00,VWS V14.00,2013-01-19 10:48:00,
2013-01-19 04:53:00,26.7,25.7,29.72,SSE,163,0.0,2.0,96,0.00,,---,0.00,0.00,VWS V14.00,2013-01-19 10:53:00,
2013-01-19 04:58:00,26.6,25.6,29.72,SSE,163,0.0,0.0,96,0.00,,---,0.00,0.00,VWS V14.00,2013-01-19 10:58:00,
2013-01-19 05:03:00,26.5,25.5,29.72,SSE,163,0.0,0.0,96,0.00,,---,0.00,0.00,VWS V14.00,2013-01-19 11:03:00,
2013-01-19 05:09:00,26.4,25.4,29.74,West,265,2.0,3.0,96,0.00,,---,0.00,0.00,VWS V14.00,2013-01-19 11:09:00,
2013-01-19 05:14:00,26.2,25.0,29.73,West,265,0.0,3.0,95,0.00,,---,0.00,0.00,VWS V14.00,2013-01-19 11:14:00,
2013-01-19 06:48:00,26.1,24.9,29.72,West,265,0.0,0.0,95,0.00,,---,0.00,0.00,VWS V14.00,2013-01-19 12:48:00,
2013-01-19 06:49:00,26.0,24.8,29.72,West,265,0.0,0.0,95,0.00,,---,0.00,0.00,VWS V14.00,2013-01-19 12:49:00,
2013-01-19 06:54:00,25.7,24.5,29.72,West,265,0.0,0.0,95,0.00,,---,0.00,0.00,VWS V14.00,2013-01-19 12:54:00,
2013-01-19 06:59:00,25.4,23.9,29.72,West,265,0.0,0.0,94,0.00,,---,0.00,0.00,VWS V14.00,2013-01-19 12:59:00,
2013-01-19 07:04:00,25.6,24.4,29.71,West,265,0.0,1.0,95,0.00,,---,0.00,0.00,VWS V14.00,2013-01-19 13:04:00,
2013-01-19 07:09:00,26.0,25.0,29.70,WSW,242,0.0,1.0,96,0.00,,---,0.00,0.00,VWS V14.00,2013-01-19 13:09:00,
2013-01-19 07:14:00,26.4,25.4,29.71,SW,227,0.0,2.0,96,0.00,,---,0.00,0.00,VWS V14.00,2013-01-19 13:14:00,
2013-01-19 07:19:00,26.5,25.5,29.72,SW,227,0.0,2.0,96,0.00,,---,0.00,0.00,VWS V14.00,2013-01-19 13:19:00,
2013-01-19 07:24:00,26.4,25.4,29.73,SW,227,0.0,2.0,96,0.00,,---,0.00,0.00,VWS V14.00,2013-01-19 13:24:00,
2013-01-19 07:29:00,26.5,25.5,29.72,SW,227,0.0,0.0,96,0.00,,---,0.00,0.00,VWS V14.00,2013-01-19 13:29:00,
2013-01-19 07:34:00,26.6,25.6,29.72,SW,227,0.0,0.0,96,0.00,,---,0.00,0.00,VWS V14.00,2013-01-19 13:34:00,
2013-01-19 07:39:00,26.7,25.7,29.73,SW,227,0.0,0.0,96,0.00,,---,0.00,0.00,VWS V14.00,2013-01-19 13:39:00,
2013-01-19 07:44:00,26.8,25.8,29.73,SW,227,0.0,0.0,96,0.00,,---,0.00,0.00,VWS V14.00,2013-01-19 13:44:00,
2013-01-19 07:50:00,27.0,26.0,29.73,SW,227,0.0,0.0,96,0.00,,---,0.00,0.00,VWS V14.00,2013-01-19 13:50:00,
2013-01-19 07:55:00,27.4,26.4,29.73,SW,227,0.0,0.0,96,0.00,,---,0.00,5.00,VWS V14.00,2013-01-19 13:55:00,
2013-01-19 08:00:00,27.7,26.7,29.73,SW,227,0.0,0.0,96,0.00,,---,0.00,7.00,VWS V14.00,2013-01-19 14:00:00,
2013-01-19 08:05:00,28.0,27.3,29.74,West,273,0.0,2.0,97,0.00,,---,0.00,9.00,VWS V14.00,2013-01-19 14:05:00,
2013-01-19 08:10:00,28.3,27.3,29.74,West,273,0.0,2.0,96,0.00,,---,0.00,12.00,VWS V14.00,2013-01-19 14:10:00,
2013-01-19 08:15:00,28.7,28.0,29.74,SSW,212,0.0,3.0,97,0.00,,---,0.00,14.00,VWS V14.00,2013-01-19 14:15:00,
2013-01-19 08:20:00,28.9,28.2,29.74,SSW,212,0.0,3.0,97,0.00,,---,0.00,16.00,VWS V14.00,2013-01-19 14:20:00,
2013-01-19 08:25:00,29.0,28.3,29.74,SSW,212,0.0,3.0,97,0.00,,---,0.00,21.00,VWS V14.00,2013-01-19 14:25:00,
2013-01-19 08:30:00,29.2,28.2,29.75,SSW,212,0.0,0.0,96,0.00,,---,0.00,35.00,VWS V14.00,2013-01-19 14:30:00,
2013-01-19 08:35:00,29.4,28.4,29.75,SSW,212,0.0,0.0,96,0.00,,---,0.00,30.00,VWS V14.00,2013-01-19 14:35:00,
2013-01-19 08:40:00,29.6,28.6,29.75,SSW,212,0.0,1.0,96,0.00,,---,0.00,25.00,VWS V14.00,2013-01-19 14:40:00,
2013-01-19 08:45:00,29.9,28.9,29.75,SSW,212,0.0,1.0,96,0.00,,---,0.00,25.00,VWS V14.00,2013-01-19 14:45:00,
2013-01-19 08:50:00,30.1,29.1,29.76,SSW,212,0.0,2.0,96,0.00,,---,0.00,32.00,VWS V14.00,2013-01-19 14:50:00,
2013-01-19 08:55:00,30.5,29.2,29.76,SSW,212,0.0,2.0,95,0.00,,---,0.00,35.00,VWS V14.00,2013-01-19 14:55:00,
2013-01-19 09:00:00,30.8,29.5,29.75,SSW,211,0.0,1.0,95,0.00,,---,0.00,74.00,VWS V14.00,2013-01-19 15:00:00,
2013-01-19 09:05:00,31.1,29.6,29.76,SSW,211,0.0,1.0,94,0.00,,---,0.00,49.00,VWS V14.00,2013-01-19 15:05:00,
2013-01-19 09:10:00,31.4,29.9,29.75,West,279,0.0,2.0,94,0.00,,---,0.00,53.00,VWS V14.00,2013-01-19 15:10:00,
2013-01-19 09:15:00,31.7,29.9,29.75,West,275,0.0,2.0,93,0.00,,---,0.00,56.00,VWS V14.00,2013-01-19 15:15:00,
2013-01-19 09:20:00,31.9,29.8,29.76,West,261,0.0,2.0,92,0.00,,---,0.00,53.00,VWS V14.00,2013-01-19 15:20:00,
2013-01-19 09:25:00,32.1,30.0,29.76,West,262,0.0,2.0,92,0.00,,---,0.00,58.00,VWS V14.00,2013-01-19 15:25:00,
2013-01-19 09:30:00,32.2,29.9,29.76,SW,231,0.0,0.0,91,0.00,,---,0.00,49.00,VWS V14.00,2013-01-19 15:30:00,
2013-01-19 09:35:00,32.4,29.8,29.77,SW,214,1.0,5.0,90,0.00,,---,0.00,79.00,VWS V14.00,2013-01-19 15:35:00,
2013-01-19 09:41:00,32.7,30.1,29.77,WNW,286,1.0,5.0,90,0.00,,---,0.00,83.00,VWS V14.00,2013-01-19 15:41:00,
2013-01-19 09:46:00,33.0,29.8,29.76,West,261,0.0,7.0,88,0.00,,---,0.00,83.00,VWS V14.00,2013-01-19 15:46:00,
2013-01-19 09:51:00,33.3,30.1,29.77,WNW,300,3.0,7.0,88,0.00,,---,0.00,70.00,VWS V14.00,2013-01-19 15:51:00,
2013-01-19 09:56:00,33.5,30.0,29.77,WNW,282,3.0,7.0,87,0.00,,---,0.00,93.00,VWS V14.00,2013-01-19 15:56:00,
2013-01-19 10:01:00,33.8,29.8,29.78,WNW,301,2.0,6.0,85,0.00,,---,0.00,102.00,VWS V14.00,2013-01-19 16:01:00,
2013-01-19 10:06:00,34.2,29.9,29.78,NW,307,3.0,7.0,84,0.00,,---,0.00,109.00,VWS V14.00,2013-01-19 16:06:00,
2013-01-19 10:11:00,34.4,30.1,29.77,NW,313,3.0,7.0,84,0.00,,---,0.00,116.00,VWS V14.00,2013-01-19 16:11:00,
2013-01-19 10:16:00,34.6,30.0,29.77,NE,56,0.0,7.0,83,0.00,,---,0.00,120.00,VWS V14.00,2013-01-19 16:16:00,
2013-01-19 10:22:00,34.8,30.2,29.77,NW,315,5.0,7.0,83,0.00,,---,0.00,123.00,VWS V14.00,2013-01-19 16:22:00,
2013-01-19 10:27:00,35.0,30.1,29.77,NW,308,0.0,9.0,82,0.00,,---,0.00,176.00,VWS V14.00,2013-01-19 16:27:00,
2013-01-19 10:32:00,35.2,30.3,29.78,NW,321,7.0,9.0,82,0.00,,---,0.00,160.00,VWS V14.00,2013-01-19 16:32:00,
2013-01-19 10:37:00,35.4,30.5,29.78,NW,319,0.0,9.0,82,0.00,,---,0.00,162.00,VWS V14.00,2013-01-19 16:37:00,
2013-01-19 10:42:00,35.5,30.3,29.79,NW,309,2.0,9.0,81,0.00,,---,0.00,118.00,VWS V14.00,2013-01-19 16:42:00,
2013-01-19 10:47:00,35.6,30.4,29.77,NW,322,3.0,9.0,81,0.00,,---,0.00,116.00,VWS V14.00,2013-01-19 16:47:00,
2013-01-19 10:52:00,35.6,30.4,29.78,WNW,301,4.0,9.0,81,0.00,,---,0.00,135.00,VWS V14.00,2013-01-19 16:52:00,
2013-01-19 10:57:00,35.7,30.5,29.79,West,259,5.0,11.0,81,0.00,,---,0.00,102.00,VWS V14.00,2013-01-19 16:57:00,
2013-01-19 11:03:00,35.7,30.1,29.79,NW,306,5.0,7.0,80,0.00,,---,0.00,105.00,VWS V14.00,2013-01-19 17:03:00,
2013-01-19 11:08:00,35.9,30.3,29.78,WNW,284,1.0,11.0,80,0.00,,---,0.00,230.00,VWS V14.00,2013-01-19 17:08:00,
2013-01-19 11:13:00,36.2,30.6,29.78,WNW,299,5.0,11.0,80,0.00,,---,0.00,183.00,VWS V14.00,2013-01-19 17:13:00,
2013-01-19 11:18:00,36.5,30.9,29.78,NW,320,5.0,11.0,80,0.00,,---,0.00,128.00,VWS V14.00,2013-01-19 17:18:00,
2013-01-19 11:23:00,36.7,30.8,29.77,NW,325,5.0,11.0,79,0.00,,---,0.00,156.00,VWS V14.00,2013-01-19 17:23:00,
2013-01-19 11:28:00,36.8,30.6,29.77,WNW,291,0.0,4.0,78,0.00,,---,0.00,167.00,VWS V14.00,2013-01-19 17:28:00,
2013-01-19 11:33:00,37.0,30.8,29.77,NW,323,2.0,7.0,78,0.00,,---,0.00,171.00,VWS V14.00,2013-01-19 17:33:00,
2013-01-19 11:39:00,37.1,30.9,29.77,NNW,328,3.0,7.0,78,0.00,,---,0.00,188.00,VWS V14.00,2013-01-19 17:39:00,
2013-01-19 11:44:00,37.1,30.6,29.78,NW,308,5.0,10.0,77,0.00,,---,0.00,127.00,VWS V14.00,2013-01-19 17:44:00,
2013-01-19 11:49:00,37.0,30.8,29.77,WNW,300,4.0,11.0,78,0.00,,---,0.01,144.00,VWS V14.00,2013-01-19 17:49:00,
2013-01-19 11:54:00,36.9,30.7,29.78,WNW,288,0.0,11.0,78,0.00,,---,0.01,135.00,VWS V14.00,2013-01-19 17:54:00,
2013-01-19 11:59:00,37.0,30.8,29.78,SSW,192,3.0,10.0,78,0.00,,---,0.01,580.00,VWS V14.00,2013-01-19 17:59:00,
2013-01-19 12:04:00,37.4,31.2,29.78,NNW,333,4.0,11.0,78,0.00,,---,0.01,195.00,VWS V14.00,2013-01-19 18:04:00,
2013-01-19 12:10:00,37.6,31.1,29.78,NW,312,7.0,11.0,77,0.00,,---,0.01,248.00,VWS V14.00,2013-01-19 18:10:00,
2013-01-19 12:15:00,37.7,31.1,29.78,WNW,290,9.0,15.0,77,0.00,,---,0.01,244.00,VWS V14.00,2013-01-19 18:15:00,
2013-01-19 12:20:00,37.8,31.2,29.78,NW,315,2.0,15.0,77,0.00,,---,0.01,171.00,VWS V14.00,2013-01-19 18:20:00,
2013-01-19 12:26:00,37.9,31.4,29.78,NNW,340,3.0,15.0,77,0.00,,---,0.01,274.00,VWS V14.00,2013-01-19 18:26:00,
2013-01-19 12:31:00,37.9,31.4,29.77,NW,317,5.0,13.0,77,0.00,,---,0.01,232.00,VWS V14.00,2013-01-19 18:31:00,
2013-01-19 12:36:00,37.9,31.4,29.78,NW,317,2.0,13.0,77,0.00,,---,0.01,153.00,VWS V14.00,2013-01-19 18:36:00,
2013-01-19 12:41:00,37.8,31.6,29.77,NW,314,6.0,13.0,78,0.00,,---,0.01,144.00,VWS V14.00,2013-01-19 18:41:00,
2013-01-19 12:46:00,37.8,31.6,29.78,WNW,282,1.0,15.0,78,0.00,,---,0.01,169.00,VWS V14.00,2013-01-19 18:46:00,
2013-01-19 12:51:00,38.0,31.8,29.77,NW,306,4.0,15.0,78,0.00,,---,0.01,360.00,VWS V14.00,2013-01-19 18:51:00,
2013-01-19 12:57:00,38.3,31.7,29.77,NNW,348,9.0,15.0,77,0.00,,---,0.01,102.00,VWS V14.00,2013-01-19 18:57:00,
2013-01-19 13:02:00,38.2,31.6,29.78,West,273,2.0,6.0,77,0.00,,---,0.01,309.00,VWS V14.00,2013-01-19 19:02:00,
2013-01-19 13:07:00,38.4,31.5,29.78,NW,315,10.0,13.0,76,0.00,,---,0.01,253.00,VWS V14.00,2013-01-19 19:07:00,
2013-01-19 13:12:00,38.4,31.2,29.78,NW,320,6.0,16.0,75,0.00,,---,0.01,183.00,VWS V14.00,2013-01-19 19:12:00,
2013-01-19 13:18:00,38.3,31.4,29.78,WNW,287,5.0,18.0,76,0.00,,---,0.01,169.00,VWS V14.00,2013-01-19 19:18:00,
2013-01-19 13:23:00,38.3,31.1,29.77,NW,311,4.0,18.0,75,0.00,,---,0.01,97.00,VWS V14.00,2013-01-19 19:23:00,
2013-01-19 13:28:00,38.2,31.0,29.78,West,275,14.0,14.0,75,0.00,,---,0.01,105.00,VWS V14.00,2013-01-19 19:28:00,
2013-01-19 13:33:00,38.0,31.1,29.78,NW,309,2.0,14.0,76,0.00,,---,0.01,79.00,VWS V14.00,2013-01-19 19:33:00,
2013-01-19 13:38:00,37.9,31.0,29.78,WSW,238,0.0,14.0,76,0.00,,---,0.01,74.00,VWS V14.00,2013-01-19 19:38:00,
2013-01-19 13:43:00,37.7,31.1,29.78,SSW,193,3.0,14.0,77,0.00,,---,0.01,91.00,VWS V14.00,2013-01-19 19:43:00,
2013-01-19 13:48:00,37.7,31.5,29.78,NW,313,0.0,14.0,78,0.00,,---,0.01,95.00,VWS V14.00,2013-01-19 19:48:00,
2013-01-19 13:53:00,37.7,31.5,29.78,NNW,330,3.0,14.0,78,0.00,,---,0.01,100.00,VWS V14.00,2013-01-19 19:53:00,
2013-01-19 13:58:00,37.7,31.5,29.77,North,355,0.0,2.0,78,0.00,,---,0.01,111.00,VWS V14.00,2013-01-19 19:58:00,
2013-01-19 14:03:00,37.7,31.5,29.78,NW,325,3.0,12.0,78,0.00,,---,0.01,69.00,VWS V14.00,2013-01-19 20:03:00,
2013-01-19 14:08:00,37.6,31.4,29.78,WNW,299,9.0,19.0,78,0.00,,---,0.01,62.00,VWS V14.00,2013-01-19 20:08:00,
2013-01-19 14:14:00,37.2,31.0,29.80,NW,313,9.0,19.0,78,0.00,,---,0.01,93.00,VWS V14.00,2013-01-19 20:14:00,
2013-01-19 14:19:00,35.7,29.8,29.81,NW,316,13.0,21.0,79,0.00,,---,0.01,114.00,VWS V14.00,2013-01-19 20:19:00,
2013-01-19 14:24:00,33.4,26.3,29.82,NW,312,8.0,25.0,75,0.00,,---,0.01,149.00,VWS V14.00,2013-01-19 20:24:00,
2013-01-19 14:29:00,32.0,25.3,29.82,WNW,292,11.0,24.0,76,0.00,,---,0.01,100.00,VWS V14.00,2013-01-19 20:29:00,
2013-01-19 14:34:00,31.3,25.2,29.82,NW,312,5.0,24.0,78,0.00,,---,0.01,113.00,VWS V14.00,2013-01-19 20:34:00,
2013-01-19 14:40:00,30.9,24.9,29.83,West,274,2.0,24.0,78,0.00,,---,0.01,100.00,VWS V14.00,2013-01-19 20:40:00,
2013-01-19 14:45:00,30.6,23.6,29.84,NW,325,15.0,24.0,75,0.00,,---,0.01,125.00,VWS V14.00,2013-01-19 20:45:00,
2013-01-19 14:50:00,29.6,20.7,29.84,NW,321,14.0,24.0,69,0.00,,---,0.01,134.00,VWS V14.00,2013-01-19 20:50:00,
2013-01-19 14:55:00,28.1,18.6,29.85,WNW,294,14.0,28.0,67,0.00,,---,0.01,132.00,VWS V14.00,2013-01-19 20:55:00,
2013-01-19 15:00:00,26.6,17.1,29.86,NNW,336,19.0,20.0,67,0.00,,---,0.01,148.00,VWS V14.00,2013-01-19 21:00:00,
2013-01-19 15:05:00,25.6,17.2,29.86,WNW,288,2.0,21.0,70,0.00,,---,0.01,88.00,VWS V14.00,2013-01-19 21:05:00,
2013-01-19 15:10:00,25.1,16.7,29.86,WNW,294,7.0,33.0,70,0.00,,---,0.01,128.00,VWS V14.00,2013-01-19 21:10:00,
2013-01-19 15:16:00,24.8,15.4,29.88,WNW,298,16.0,33.0,67,0.00,,---,0.01,142.00,VWS V14.00,2013-01-19 21:16:00,
2013-01-19 15:22:00,23.4,12.7,29.89,NW,314,18.0,33.0,63,0.00,,---,0.01,74.00,VWS V14.00,2013-01-19 21:22:00,
2013-01-19 15:27:00,22.2,11.5,29.89,WNW,303,5.0,33.0,63,0.00,,---,0.01,53.00,VWS V14.00,2013-01-19 21:27:00,
2013-01-19 15:32:00,21.3,11.0,29.90,WNW,299,23.0,30.0,64,0.00,,---,0.01,33.00,VWS V14.00,2013-01-19 21:32:00,
2013-01-19 15:37:00,20.1,10.6,29.91,WSW,255,10.0,30.0,66,0.00,,---,0.01,28.00,VWS V14.00,2013-01-19 21:37:00,
2013-01-19 15:43:00,19.3,9.8,29.92,NW,315,16.0,30.0,66,0.00,,---,0.01,30.00,VWS V14.00,2013-01-19 21:43:00,
2013-01-19 15:48:00,18.9,9.8,29.93,West,269,2.0,30.0,67,0.00,,---,0.01,30.00,VWS V14.00,2013-01-19 21:48:00,
2013-01-19 15:53:00,18.6,9.8,29.92,WNW,290,9.0,30.0,68,0.00,,---,0.01,30.00,VWS V14.00,2013-01-19 21:53:00,
2013-01-19 15:58:00,18.2,8.1,29.94,WNW,300,24.0,24.0,64,0.00,,---,0.01,28.00,VWS V14.00,2013-01-19 21:58:00,
2013-01-19 16:04:00,17.5,7.8,29.94,NW,312,23.0,33.0,65,0.00,,---,0.01,33.00,VWS V14.00,2013-01-19 22:04:00,
2013-01-19 16:09:00,17.3,7.9,29.95,NW,323,10.0,33.0,66,0.00,,---,0.01,28.00,VWS V14.00,2013-01-19 22:09:00,
2013-01-19 16:14:00,17.3,7.9,29.95,West,263,15.0,33.0,66,0.00,,---,0.01,37.00,VWS V14.00,2013-01-19 22:14:00,
2013-01-19 16:19:00,17.1,7.7,29.95,WNW,300,16.0,33.0,66,0.00,,---,0.01,32.00,VWS V14.00,2013-01-19 22:19:00,
2013-01-19 16:25:00,16.8,7.1,29.96,WNW,301,7.0,33.0,65,0.00,,---,0.01,25.00,VWS V14.00,2013-01-19 22:25:00,
2013-01-19 16:30:00,16.7,7.3,29.96,NW,316,11.0,26.0,66,0.00,,---,0.01,26.00,VWS V14.00,2013-01-19 22:30:00,
2013-01-19 16:35:00,16.5,7.5,29.97,NNW,344,11.0,26.0,67,0.00,,---,0.01,46.00,VWS V14.00,2013-01-19 22:35:00,
2013-01-19 16:40:00,16.4,8.0,29.97,NW,317,7.0,26.0,69,0.00,,---,0.01,44.00,VWS V14.00,2013-01-19 22:40:00,
2013-01-19 16:45:00,16.4,7.4,29.98,SW,221,5.0,26.0,67,0.00,,---,0.01,16.00,VWS V14.00,2013-01-19 22:45:00,
2013-01-19 16:50:00,16.0,6.3,29.99,NW,317,11.0,26.0,65,0.00,,---,0.01,12.00,VWS V14.00,2013-01-19 22:50:00,
2013-01-19 16:55:00,15.5,6.2,29.99,NNW,327,10.0,26.0,66,0.00,,---,0.01,9.00,VWS V14.00,2013-01-19 22:55:00,
2013-01-19 17:00:00,15.2,6.2,29.99,NNW,336,7.0,20.0,67,0.00,,---,0.01,7.00,VWS V14.00,2013-01-19 23:00:00,
2013-01-19 17:06:00,15.0,6.4,30.00,NNW,330,19.0,20.0,68,0.00,,---,0.01,5.00,VWS V14.00,2013-01-19 23:06:00,
2013-01-19 17:11:00,14.4,4.8,30.01,NW,311,15.0,26.0,65,0.00,,---,0.01,0.00,VWS V14.00,2013-01-19 23:11:00,
2013-01-19 17:16:00,13.7,3.5,30.02,NW,322,13.0,27.0,63,0.00,,---,0.01,0.00,VWS V14.00,2013-01-19 23:16:00,
2013-01-19 17:21:00,13.2,3.3,30.03,WNW,290,10.0,27.0,64,0.00,,---,0.01,0.00,VWS V14.00,2013-01-19 23:21:00,
2013-01-19 17:26:00,12.7,2.8,30.03,NW,307,17.0,27.0,64,0.00,,---,0.01,0.00,VWS V14.00,2013-01-19 23:26:00,
2013-01-19 17:32:00,12.3,2.5,30.04,NW,313,12.0,16.0,64,0.00,,---,0.01,0.00,VWS V14.00,2013-01-19 23:32:00,
2013-01-19 17:37:00,11.8,2.3,30.05,NW,313,11.0,25.0,65,0.00,,---,0.01,0.00,VWS V14.00,2013-01-19 23:37:00,
2013-01-19 17:42:00,11.4,2.6,30.05,NNW,338,15.0,31.0,67,0.00,,---,0.01,0.00,VWS V14.00,2013-01-19 23:42:00,
2013-01-19 17:47:00,11.2,1.7,30.06,WNW,302,7.0,31.0,65,0.00,,---,0.01,0.00,VWS V14.00,2013-01-19 23:47:00,
2013-01-19 17:53:00,11.0,1.5,30.07,WNW,300,7.0,31.0,65,0.00,,---,0.01,0.00,VWS V14.00,2013-01-19 23:53:00,
2013-01-19 17:58:00,10.8,2.0,30.07,NW,321,26.0,26.0,67,0.00,,---,0.01,0.00,VWS V14.00,2013-01-19 23:58:00,
2013-01-19 18:03:00,10.5,1.4,30.07,NNW,329,6.0,26.0,66,0.00,,---,0.01,0.00,VWS V14.00,2013-01-20 00:03:00,
2013-01-19 18:08:00,10.3,1.5,30.08,West,267,5.0,26.0,67,0.00,,---,0.01,0.00,VWS V14.00,2013-01-20 00:08:00,
2013-01-19 18:13:00,10.0,1.6,30.08,NW,307,15.0,26.0,68,0.00,,---,0.01,0.00,VWS V14.00,2013-01-20 00:13:00,
2013-01-19 18:18:00,9.9,2.1,30.09,WNW,296,10.0,26.0,70,0.00,,---,0.01,0.00,VWS V14.00,2013-01-20 00:18:00,
2013-01-19 18:23:00,9.7,2.5,30.09,North,9,14.0,26.0,72,0.00,,---,0.01,0.00,VWS V14.00,2013-01-20 00:23:00,
2013-01-19 18:28:00,9.4,1.6,30.09,WNW,297,14.0,22.0,70,0.00,,---,0.01,0.00,VWS V14.00,2013-01-20 00:28:00,
2013-01-19 18:33:00,9.2,1.7,30.09,WNW,292,14.0,22.0,71,0.00,,---,0.01,0.00,VWS V14.00,2013-01-20 00:33:00,
2013-01-19 18:38:00,9.0,1.8,30.10,NNW,330,8.0,27.0,72,0.00,,---,0.01,0.00,VWS V14.00,2013-01-20 00:38:00,
2013-01-19 18:45:00,8.8,1.3,30.11,NNW,336,5.0,27.0,71,0.00,,---,0.01,0.00,VWS V14.00,2013-01-20 00:45:00,
2013-01-19 18:50:00,8.6,0.8,30.11,WNW,294,3.0,27.0,70,0.00,,---,0.01,0.00,VWS V14.00,2013-01-20 00:50:00,
2013-01-19 18:55:00,8.3,-0.1,30.11,NW,313,26.0,27.0,68,0.00,,---,0.01,0.00,VWS V14.00,2013-01-20 00:55:00,
2013-01-19 19:01:00,7.9,-0.4,30.11,WNW,302,6.0,20.0,68,0.00,,---,0.01,0.00,VWS V14.00,2013-01-20 01:01:00,
2013-01-19 19:06:00,7.8,-0.2,30.12,NNW,333,7.0,20.0,69,0.00,,---,0.01,0.00,VWS V14.00,2013-01-20 01:06:00,
2013-01-19 19:11:00,7.6,-0.4,30.13,WNW,298,14.0,20.0,69,0.00,,---,0.01,0.00,VWS V14.00,2013-01-20 01:11:00,
2013-01-19 19:16:00,7.4,-0.6,30.13,WNW,296,16.0,24.0,69,0.00,,---,0.01,0.00,VWS V14.00,2013-01-20 01:16:00,
2013-01-19 19:22:00,7.2,-0.5,30.14,WNW,290,12.0,24.0,70,0.00,,---,0.01,0.00,VWS V14.00,2013-01-20 01:22:00,
2013-01-19 19:27:00,7.1,-0.6,30.14,NNW,331,7.0,24.0,70,0.00,,---,0.01,0.00,VWS V14.00,2013-01-20 01:27:00,
2013-01-19 19:32:00,6.9,-0.8,30.14,North,351,7.0,20.0,70,0.00,,---,0.01,0.00,VWS V14.00,2013-01-20 01:32:00,
2013-01-19 19:37:00,6.6,-1.7,30.15,WNW,294,6.0,24.0,68,0.00,,---,0.01,0.00,VWS V14.00,2013-01-20 01:37:00,
2013-01-19 19:42:00,6.2,-2.1,30.15,NW,312,6.0,25.0,68,0.00,,---,0.01,0.00,VWS V14.00,2013-01-20 01:42:00,
2013-01-19 19:47:00,6.0,-2.0,30.16,WNW,286,5.0,25.0,69,0.00,,---,0.01,0.00,VWS V14.00,2013-01-20 01:47:00,
2013-01-19 19:53:00,5.6,-2.7,30.16,NW,319,10.0,25.0,68,0.00,,---,0.01,0.00,VWS V14.00,2013-01-20 01:53:00,
2013-01-19 19:58:00,5.4,-2.5,30.17,WNW,297,11.0,14.0,69,0.00,,---,0.01,0.00,VWS V14.00,2013-01-20 01:58:00,
2013-01-19 20:03:00,5.2,-2.7,30.17,NNW,341,12.0,25.0,69,0.00,,---,0.01,0.00,VWS V14.00,2013-01-20 02:03:00,
2013-01-19 20:08:00,5.0,-2.6,30.19,NW,311,21.0,25.0,70,0.00,,---,0.01,0.00,VWS V14.00,2013-01-20 02:08:00,
2013-01-19 20:13:00,5.0,-2.6,30.19,NW,312,16.0,25.0,70,0.00,,---,0.01,0.00,VWS V14.00,2013-01-20 02:13:00,
2013-01-19 20:18:00,4.9,-2.7,30.19,WNW,286,10.0,25.0,70,0.00,,---,0.01,0.00,VWS V14.00,2013-01-20 02:18:00,
2013-01-19 20:23:00,4.7,-2.6,30.20,West,281,7.0,25.0,71,0.00,,---,0.01,0.00,VWS V14.00,2013-01-20 02:23:00,
2013-01-19 20:28:00,4.5,-2.2,30.20,NW,314,15.0,18.0,73,0.00,,---,0.01,0.00,VWS V14.00,2013-01-20 02:28:00,
2013-01-19 20:33:00,4.4,-2.3,30.21,NW,306,15.0,18.0,73,0.00,,---,0.01,0.00,VWS V14.00,2013-01-20 02:33:00,
2013-01-19 20:39:00,4.3,-2.1,30.21,NW,306,7.0,18.0,74,0.00,,---,0.01,0.00,VWS V14.00,2013-01-20 02:39:00,
2013-01-19 20:44:00,4.1,-2.6,30.21,NW,318,7.0,27.0,73,0.00,,---,0.01,0.00,VWS V14.00,2013-01-20 02:44:00,
2013-01-19 20:49:00,4.0,-3.0,30.21,NW,317,15.0,27.0,72,0.00,,---,0.01,0.00,VWS V14.00,2013-01-20 02:49:00,
2013-01-19 20:54:00,4.0,-3.0,30.22,NW,308,7.0,27.0,72,0.00,,---,0.01,0.00,VWS V14.00,2013-01-20 02:54:00,
2013-01-19 20:59:00,3.8,-3.2,30.22,WNW,298,16.0,17.0,72,0.00,,---,0.01,0.00,VWS V14.00,2013-01-20 02:59:00,
2013-01-19 21:04:00,3.7,-3.6,30.22,NNW,333,12.0,17.0,71,0.00,,---,0.01,0.00,VWS V14.00,2013-01-20 03:04:00,
2013-01-19 21:09:00,3.6,-3.4,30.23,NW,315,5.0,17.0,72,0.00,,---,0.01,0.00,VWS V14.00,2013-01-20 03:09:00,
2013-01-19 21:14:00,3.5,-3.5,30.23,WNW,302,9.0,20.0,72,0.00,,---,0.01,0.00,VWS V14.00,2013-01-20 03:14:00,
2013-01-19 21:20:00,3.4,-3.6,30.24,NNW,327,10.0,21.0,72,0.00,,---,0.01,0.00,VWS V14.00,2013-01-20 03:20:00,
2013-01-19 21:25:00,3.3,-3.7,30.24,NNW,337,4.0,21.0,72,0.00,,---,0.01,0.00,VWS V14.00,2013-01-20 03:25:00,
2013-01-19 21:30:00,3.2,-3.8,30.24,NW,306,11.0,19.0,72,0.00,,---,0.01,0.00,VWS V14.00,2013-01-20 03:30:00,
2013-01-19 21:35:00,3.1,-3.9,30.25,NW,316,11.0,21.0,72,0.00,,---,0.01,0.00,VWS V14.00,2013-01-20 03:35:00,
2013-01-19 21:40:00,3.1,-3.9,30.25,NW,309,6.0,21.0,72,0.00,,---,0.01,0.00,VWS V14.00,2013-01-20 03:40:00,
2013-01-19 21:45:00,3.0,-3.7,30.25,NW,311,7.0,21.0,73,0.00,,---,0.01,0.00,VWS V14.00,2013-01-20 03:45:00,
2013-01-19 21:50:00,2.9,-3.5,30.26,WNW,294,11.0,21.0,74,0.00,,---,0.01,0.00,VWS V14.00,2013-01-20 03:50:00,
2013-01-19 21:55:00,2.8,-3.3,30.26,North,360,3.0,21.0,75,0.00,,---,0.01,0.00,VWS V14.00,2013-01-20 03:55:00,
2013-01-19 22:00:00,2.8,-3.3,30.26,NW,324,7.0,18.0,75,0.00,,---,0.01,0.00,VWS V14.00,2013-01-20 04:00:00,
2013-01-19 22:06:00,2.6,-3.5,30.27,NW,318,3.0,18.0,75,0.00,,---,0.01,0.00,VWS V14.00,2013-01-20 04:06:00,
2013-01-19 22:12:00,2.5,-3.3,30.27,NW,319,1.0,18.0,76,0.00,,---,0.01,0.00,VWS V14.00,2013-01-20 04:12:00,
2013-01-19 22:17:00,2.3,-3.2,30.28,NW,317,4.0,18.0,77,0.00,,---,0.01,0.00,VWS V14.00,2013-01-20 04:17:00,
2013-01-19 22:22:00,2.2,-3.1,30.28,NNW,340,4.0,18.0,78,0.00,,---,0.01,0.00,VWS V14.00,2013-01-20 04:22:00,
2013-01-19 22:27:00,2.1,-3.4,30.28,NW,322,8.0,18.0,77,0.00,,---,0.01,0.00,VWS V14.00,2013-01-20 04:27:00,
2013-01-19 22:33:00,2.1,-3.4,30.27,WNW,293,0.0,11.0,77,0.00,,---,0.01,0.00,VWS V14.00,2013-01-20 04:33:00,
2013-01-19 22:38:00,2.0,-3.5,30.27,NW,325,7.0,11.0,77,0.00,,---,0.01,0.00,VWS V14.00,2013-01-20 04:38:00,
2013-01-19 22:43:00,2.0,-3.3,30.28,WNW,303,5.0,11.0,78,0.00,,---,0.01,0.00,VWS V14.00,2013-01-20 04:43:00,
2013-01-19 22:48:00,1.9,-3.4,30.27,NW,312,2.0,11.0,78,0.00,,---,0.01,0.00,VWS V14.00,2013-01-20 04:48:00,
2013-01-19 22:53:00,1.9,-3.6,30.27,NNW,333,3.0,11.0,77,0.00,,---,0.01,0.00,VWS V14.00,2013-01-20 04:53:00,
2013-01-19 22:58:00,1.9,-3.6,30.26,WNW,298,3.0,3.0,77,0.00,,---,0.01,0.00,VWS V14.00,2013-01-20 04:58:00,
2013-01-19 23:00:00,1.9,-3.6,30.26,NW,326,2.0,6.0,77,0.00,,---,0.01,0.00,VWS V14.00,2013-01-20 05:00:00,
2013-01-19 23:01:00,1.9,-3.6,30.26,NW,304,3.0,6.0,77,0.00,,---,0.01,0.00,VWS V14.00,2013-01-20 05:01:00,
2013-01-19 23:03:00,1.8,-3.7,30.26,NW,316,4.0,6.0,77,0.00,,---,0.01,0.00,VWS V14.00,2013-01-20 05:03:00,
2013-01-19 23:09:00,1.8,-3.5,30.26,NW,309,4.0,6.0,78,0.00,,---,0.01,0.00,VWS V14.00,2013-01-20 05:09:00,
2013-01-19 23:14:00,1.7,-3.6,30.26,NW,309,4.0,6.0,78,0.00,,---,0.01,0.00,VWS V14.00,2013-01-20 05:14:00,
2013-01-19 23:19:00,1.7,-3.6,30.26,NW,312,4.0,6.0,78,0.00,,---,0.01,0.00,VWS V14.00,2013-01-20 05:19:00,
2013-01-19 23:24:00,1.7,-3.3,30.27,WNW,300,1.0,11.0,79,0.00,,---,0.01,0.00,VWS V14.00,2013-01-20 05:24:00,
2013-01-19 23:29:00,1.7,-3.3,30.27,WNW,290,1.0,4.0,79,0.00,,---,0.01,0.00,VWS V14.00,2013-01-20 05:29:00,
2013-01-19 23:34:00,1.7,-3.3,30.27,WNW,292,4.0,5.0,79,0.00,,---,0.01,0.00,VWS V14.00,2013-01-20 05:34:00,
2013-01-19 23:39:00,1.7,-3.6,30.28,WNW,299,3.0,7.0,78,0.00,,---,0.01,0.00,VWS V14.00,2013-01-20 05:39:00,
2013-01-19 23:44:00,1.7,-3.6,30.29,West,264,4.0,7.0,78,0.00,,---,0.01,0.00,VWS V14.00,2013-01-20 05:44:00,
2013-01-19 23:49:00,1.7,-3.6,30.30,NW,308,3.0,7.0,78,0.00,,---,0.01,0.00,VWS V14.00,2013-01-20 05:49:00,
2013-01-19 23:54:00,1.7,-3.8,30.30,NW,319,6.0,11.0,77,0.00,,---,0.01,0.00,VWS V14.00,2013-01-20 05:54:00,
2013-01-19 23:59:00,1.7,-4.1,30.30,NW,321,4.0,4.0,76,0.00,,---,0.00,0.00,VWS V14.00,2013-01-20 05:59:00,